Home   Weather   Bilbao   Past weeks

Flag for Spain Past Weather in Bilbao, Basque Country, Spain — Yesterday and Last 2 Weeks

Now
48 °F

Cool.


Feels Like: 47 °F
Forecast: 49 / 60 °F
Wind: 3 mph from East

Location: Bilbao / Sondica

Current Time: Apr 24, 2017 at 3:36:12 am

Latest Report: Apr 24, 2017 at 3:00 am


Visibility: N/A

Pressure: 30.04 "Hg

Humidity: 87%

Dew Point: 45 °F

Location of BilbaoLocation

Past Weather in Bilbao — Graph

°F

Bilbao Temperature Yesterday

Maximum temperature yesterday: 72 °F (at 1:30 pm)
Minimum temperature yesterday: 46 °F (at 6:00 am)
Average temperature yesterday: 59 °F

High & Low Weather Summary for the Past Weeks

 TemperatureHumidityPressure
High79 °F (Apr 22, 2:30 pm)100% (Apr 12, 2:00 am)30.33 "Hg (Apr 12, 2:00 am)
Low39 °F (Apr 21, 6:30 am)24% (Apr 22, 2:00 pm)30.04 "Hg (Apr 23, 3:00 pm)
Average57 °F71%30.21 "Hg
* Reported Apr 9 2:00 am — Apr 24 2:00 am, Bilbao, Weather by CustomWeather, © 2017

Note: Actual official high and low records may vary slightly from our data, if they occured in-between our weather recording intervals... More about our weather records

Advertising

Bilbao Weather History for the Previous 24 Hours

Scroll right to see more
 ConditionsComfort  
Time TempWeatherWind HumidityBarometerVisibility
2:00 am
Mon, Apr 24
50 °FCool.2 mph82%30.04 "HgN/A
1:30 am52 °FCool.2 mph77%30.04 "HgN/A
1:00 am52 °FCool.2 mph77%30.07 "HgN/A
12:30 am52 °FClear.1 mph82%30.07 "Hg10 mi
12:00 am54 °FClear.No wind77%30.07 "Hg10 mi
11:30 pm
Sun, Apr 23
54 °FClear.1 mph82%30.07 "Hg10 mi
10:30 pm57 °FClear.No wind72%30.07 "Hg10 mi
10:00 pm57 °FClear.1 mph77%30.04 "Hg10 mi
9:30 pm59 °FClear.2 mph72%30.04 "Hg10 mi
9:00 pm59 °FSunny.2 mph72%30.04 "Hg10 mi
8:30 pm63 °FSunny.7 mph59%30.04 "Hg10 mi
8:00 pm64 °FPassing clouds.7 mph60%30.04 "HgN/A
7:30 pm66 °FSunny.8 mph56%30.04 "Hg10 mi
7:00 pm68 °FPassing clouds.6 mph56%30.04 "HgN/A
6:30 pm66 °FPassing clouds.9 mph60%30.04 "HgN/A
6:00 pm68 °FPassing clouds.9 mph56%30.04 "HgN/A
5:30 pm68 °FPassing clouds.9 mph60%30.04 "HgN/A
5:00 pm68 °FPassing clouds.9 mph56%30.04 "HgN/A
4:30 pm68 °FPassing clouds.12 mph60%30.04 "HgN/A
4:00 pm70 °FPassing clouds.8 mph57%30.04 "HgN/A
3:30 pm70 °FPassing clouds.8 mph57%30.04 "HgN/A
3:00 pm70 °FPassing clouds.10 mph53%30.04 "HgN/A
2:30 pm72 °FPassing clouds.12 mph53%30.07 "HgN/A
2:00 pm72 °FPassing clouds.10 mph50%30.07 "HgN/A
1:30 pm72 °FSunny.9 mph50%30.07 "Hg10 mi
1:00 pm70 °FSunny.7 mph50%30.07 "Hg10 mi
12:30 pm70 °FSunny.2 mph46%30.09 "Hg10 mi
12:00 pm68 °FSunny.1 mph43%30.09 "Hg10 mi
11:30 am66 °FSunny.No wind43%30.09 "Hg10 mi
11:00 am63 °FSunny.No wind52%30.09 "Hg10 mi
10:30 am61 °FSunny.No wind52%30.09 "Hg10 mi
10:00 am57 °FSunny.No wind63%30.09 "Hg10 mi
9:30 am54 °FSunny.1 mph72%30.09 "Hg10 mi
9:00 am50 °FPassing clouds.3 mph76%30.09 "HgN/A
8:30 am48 °FSunny.2 mph82%30.12 "Hg10 mi
8:00 am46 °FSunny.5 mph87%30.09 "Hg10 mi
7:30 am46 °FSunny.3 mph87%30.09 "Hg10 mi
7:00 am46 °FPassing clouds.5 mph87%30.09 "HgN/A
6:30 am46 °FPassing clouds.3 mph87%30.09 "HgN/A
6:00 am46 °FClear.1 mph87%30.09 "Hg10 mi
5:30 am48 °FClear.2 mph82%30.09 "Hg10 mi
4:30 am48 °FCool.3 mph82%30.09 "HgN/A
4:00 am50 °FCool.3 mph82%30.09 "HgN/A
3:30 am50 °FCool.1 mph82%30.09 "HgN/A
3:00 am48 °FCool.3 mph94%30.12 "HgN/A
Weather by CustomWeather, © 2017

See weather overviewHow to use our weather pages